Погода в Ашхабаде

Поиск расширенной информации на нашем сайте:

Полезная информация:

Новости сайта



02.01.2020
Опубликован Долгосрочный прогноз погоды по городам России и ближнего зарубежья на январь 2020 года.
Карты: Прогноз на январь и февраль 2020 года, Сравнение прогнозируемой аномалии приземной температуры воздуха на январь 2020 года по разным моделям.




Погода в Ашхабаде - сегодня

Время (UTC), дата Ветер
(°,м/с) 
Видим.   Явления Облачность Т
(°С)
Тd
(°С)
f(%) Тe
(°С)
Pmin
(гПа)
dP
(гПа)
Po
(мм)
O2
(г/м3)
Тmin Tmax R s Состояние
почвы
18 22.10.20 120 (ЮВ) 10 км    8/5 1500 м средняя 
[Sc|Ac trans]
+14.6 -0.2 36 +14  1024.9  0.8  750  287    +19.2       
21 22.10.20 110 (В) 10 км    4/0 средняя 
[Ac trans]
+12.8 +1.1 45 +13  1024.1  -0.9  749  288           
00 23.10.20 180 (Ю) 10 км    8/3 1500 м средняя 
[Sc|Ac trans]
+1.1 +1.7 100 +2  1024.5  0.2  749  300           
03 23.10.20 090 (В) 10 км    5/3 1500 м средняя 
[Sc|Ac trans]
+9.6 +3.6 66 +10  1024.9  0.3  750  291  +9.6        сухая 
06 23.10.20 100 (В) 10 км    4/0 средняя 
[Sc|Ac trans]
+17.1 +1.7 35 +18  1025  0.8  750  284  +9.6         
09 23.10.20 120 (ЮВ) 10 км    4/3 1500 м средняя 
[Sc|Ac trans]
+21 +4.1 33 +21  1023.4  -1.3  749  280           
12 23.10.20 360 (С) 10 км    5/3 1500 м средняя 
[Sc|Ac trans]
+21.6 +3.8 31 +22  1023.2  -0.1  749  279           
15 23.10.20 330 (СЗ) 10 км    8/5 1500 м средняя 
[Sc|Ac trans]
+18.6 +3.8 37 +20  1024.2  0.7  750  282    +22       
18 23.10.20 тихо ()   10 км    10/3 1500 м средняя 
[Sc|Ac und]
+17.7 +6.1 46 +18  1024.2  -0.1  750  283    +22       
21 23.10.20 тихо ()   10 км    10/0 средняя 
[Ac und]
+15.7 +5.1 49 +16  1023.6  -0.7  749  285           
00 24.10.20 тихо ()   10 км    4/0 средняя 
[Ac trans]
+13.8 +5 55 +14  1023.3  -0.4  749  286           
03 24.10.20 тихо ()   10 км    3/0 верхняя 
[Ci sp]
+12 +4.5 60 +12  1024.5  0.9  749  289  +11.6        сухая 
06 24.10.20 340 (С) 10 км    ясно 
+20.3 +3.4 33 +20  1025.3  1.5  751  281  +11.6         
09 24.10.20 320 (СЗ) 10 км    ясно 
+22.5 -0.5 22 +23  1023.5  -1.6  749  279           
12 24.10.20 070 (В) 10 км    ясно 
+23.3 -0.2 21 +23  1023  -0.4  749  278           
15 24.10.20 120 (ЮВ) 10 км    ясно 
+18.1 -1.7 26 +19  1024.2  0.7  750  283    +24.4       
18 24.10.20 100 (В) 10 км    ясно 
+13.4 +0.6 42 +14  1023.9  -0.7  749  288    +24.4       
21 24.10.20 210 (ЮЗ) 10 км    ясно 
+11.4 -0.7 43 +12  1022.8  -1.2  748  289           
00 25.10.20 130 (ЮВ) 10 км    ясно 
+9.4 +0 52 +9  1021.6  -1.4  747  291           
03 25.10.20 100 (В) 10 км    ясно 
+9.6 +1.5 57 +9  1021.7  0.1  747  291  +9.4        сухая 
06 25.10.20 090 (В) 10 км    ясно 
+17.8 +2.5 36 +18  1021.9  748  283  +9.4         
09 25.10.20 120 (ЮВ) 10 км    ясно 
+23.6 +1.5 23 +24  1020.1  -1.4  747  277           
12 25.10.20 100 (В) 10 км    ясно 
+25.2 +1.3 21 +25  1018.4  -1.4  746  275           
15 25.10.20 120 (ЮВ) 10 км    ясно 
+20.2 +1.7 29 +20  1018.6  -0.2  746  279    +25.4       
18 25.10.20 110 (В) 10 км    ясно 
+15.8 +0.9 36 +16  1018.8  -0.1  746  284    +25.4       
Время (UTC), дата Ветер
(°,м/с) 
Видим.   Явления Облачность Т
(°С)
Тd
(°С)
f(%) Тe
(°С)
Pmin
(гПа)
dP
(гПа)
Po
(мм)
O2
(г/м3)
Тmin Tmax R s Состояние
почвы

Для получения пояснительной информации подведите курсор к названию столбца.

ПОГОДА в Ашхабаде - архив

Всё, что Вы хотите узнать о погоде в Ашхабаде - удобно и подробно!

Выберите нужную дату (начиная с 1 января 2019* года) и нажмите кнопку "Найти".
Будут отображены архивные сводки погоды по пункту Ашхабад, начиная с указанной даты.


Отображать данные в формате CSV (для использования в таблицах Excel)


Внимание! Наш архив погоды предназначен исключительно для личного некоммерческого использования в познавательных целях. Если Вам необходимы официальные справки о состоянии погоды (для производственных, юридических, коммерческих и т.п. целей), обращайтесь в органы Росгидромета.

*Примечание: данная дата относится к архиву по метеостанциям СССР (Россия, СНГ, Балтия).
Архив по метеостанциям Зарубежной Европы и Азии (кроме Китая) хранится 10 дней, по другим регионам земного шара (Китай, Африка, Америка, Австралия, Океания) - 1 день.

Ашхабад - район местоположения метеостанции


Название, широта, долгота, высота метеостанции:
Ашхабад (город) 38°ш. 58.3°д. 208 м над ур. моря [Туркменистан]

Дополнительная информация

В oтличие oт бoльшинства пoгoдных сайтoв мы публикуем пoдрoбную метеoинфoрмацию в детальнoм прoфессиoнальнoм фoрмате.

Характеристики температуры и влажнoсти вoздуха измеряются на высoте 2 м в тени вдали oт зданий и деревьев.
Скoрoсть ветра измеряется на высoте 10 м (на урoвне рoста челoвека скoрoсть ветра ниже в 1.5-2 раза). Если метеoстанция нахoдится в гoрoде или в лесу, тo скoрoсть ветра занижена на 2-4 м/с пo сравнению с oткрытым местoм. Скoрoсть ветра над акватoриями крупных рек и oзёр, а также на вершинах хoлмoв на 2-5 м/с выше, чем в oбычных услoвиях.
Атмoсфернoе давление в разных тoчках местнoсти мoжет значительнo oтличаться oт давления на метеoстанции, в зависимoсти oт услoвий рельефа (при пoдъёме на 10 м давление пoнижается примернo на 1 мм рт.ст.).